Weather History for KARV - March, 2013

Change the Weather History Date:

Saturday, March 2, 2013

  Actual Average Record
Temperature  
Mean Temperature 14 °F -  
Max Temperature 28 °F 33 °F 60 °F (1923)
Min Temperature 0 °F 10 °F -25 °F (1943)
Degree Days  
Heating Degree Days 51    
Moisture  
Dew Point 6 °F    
Average Humidity 67    
Maximum Humidity 86    
Minimum Humidity 37    
Precipitation  
Precipitation 0.00 in - - ()
Sea Level Pressure  
Sea Level Pressure 30.18 in    
Wind  
Wind Speed 3 mph (NNE)    
Max Wind Speed 14 mph    
Max Gust Speed 20 mph    
Visibility 10 miles    
Events Snow    
Averages and records for this station are not official NWS values.
T = Trace of Precipitation, MM = Missing Value Source: NWS Daily Summary

Daily Weather History Graph

Daily Weather History Graph

Search for Another Location

Airport or City:

Trip Planner

Search our weather history database for the weather conditions in past years. The results will help you decide how hot, cold, wet, or windy it might be!

Date:

Astronomy

Mar. 02, 2013 Rise Set
Actual Time 6:35 AM CST 5:47 PM CST
Civil Twilight 6:05 AM CST 6:17 PM CST
Nautical Twilight 5:31 AM CST 6:51 PM CST
Astronomical Twilight 4:56 AM CST 7:26 PM CST
Moon 11:47 PM CST (3/2) 8:44 AM CST (3/2)
Length of Visible Light 12h 11m
Length of Day
11h 11m
Waning Gibbous, 74% of the Moon is Illuminated
Mar 2
Waning Gibbous
Mar 4
Last Quarter
Mar 11
New
Mar 19
First Quarter
Mar 27
Full

Hourly Weather History & Observations

Time (CST) Temp. Windchill Dew Point Humidity Pressure Visibility Wind Dir Wind Speed Gust Speed Precip Events Conditions
12:15 AM 10.4 °F - 5.0 °F 79% 30.25 in 10.0 mi Calm Calm - N/A   Clear
12:35 AM 12.2 °F 6.1 °F 8.6 °F 85% 30.24 in 10.0 mi North 3.5 mph - N/A   Clear
12:55 AM 12.2 °F 6.1 °F 6.8 °F 79% 30.24 in 10.0 mi North 3.5 mph - N/A   Clear
1:15 AM 12.2 °F 6.1 °F 6.8 °F 79% 30.24 in 10.0 mi North 3.5 mph - N/A   Clear
1:35 AM 12.2 °F - 6.8 °F 79% 30.24 in 10.0 mi Calm Calm - N/A   Clear
1:55 AM 12.2 °F - 8.6 °F 85% 30.23 in 10.0 mi Calm Calm - N/A   Clear
2:15 AM 10.4 °F - 5.0 °F 79% 30.23 in 10.0 mi Calm Calm - N/A Snow Light Snow
2:35 AM 8.6 °F 2.0 °F 5.0 °F 85% 30.23 in 10.0 mi NNW 3.5 mph - N/A   Clear
2:55 AM 8.6 °F - 3.2 °F 79% 30.22 in 10.0 mi Calm Calm - N/A   Clear
3:15 AM 5.0 °F - 1.4 °F 85% 30.22 in 10.0 mi Calm Calm - N/A   Clear
3:35 AM 5.0 °F - 1.4 °F 85% 30.22 in 10.0 mi Calm Calm - N/A   Clear
3:55 AM 5.0 °F - 1.4 °F 85% 30.22 in 10.0 mi Calm Calm - N/A   Clear
4:15 AM 3.2 °F - -0.4 °F 85% 30.22 in 10.0 mi Calm Calm - N/A   Clear
4:35 AM 3.2 °F - -0.4 °F 85% 30.22 in 10.0 mi Calm Calm - N/A   Clear
4:55 AM 3.2 °F - -0.4 °F 85% 30.22 in 10.0 mi Calm Calm - N/A   Clear
5:15 AM 1.4 °F - -2.2 °F 85% 30.22 in 10.0 mi Calm Calm - N/A   Clear
5:35 AM 1.4 °F - -4.0 °F 78% 30.22 in 10.0 mi Calm Calm - N/A   Clear
6:35 AM -0.4 °F - -5.8 °F 78% 30.22 in 10.0 mi Calm Calm - N/A   Clear
6:55 AM -0.4 °F - -5.8 °F 78% 30.22 in 10.0 mi Calm Calm - N/A   Clear
7:15 AM -0.4 °F - -5.8 °F 78% 30.23 in 10.0 mi Calm Calm - N/A   Clear
7:35 AM -0.4 °F - -4.0 °F 85% 30.22 in 10.0 mi Calm Calm - N/A   Clear
7:55 AM 1.4 °F -8.3 °F -4.0 °F 78% 30.22 in 10.0 mi North 4.6 mph - N/A Snow Light Snow
8:15 AM 5.0 °F -5.6 °F 1.4 °F 85% 30.22 in 7.0 mi North 5.8 mph - N/A Snow Light Snow
8:35 AM 12.2 °F -0.2 °F 8.6 °F 85% 30.22 in 10.0 mi North 9.2 mph - N/A   Clear
8:55 AM 14.0 °F 2.0 °F 10.4 °F 86% 30.22 in 10.0 mi North 9.2 mph - N/A   Clear
9:15 AM 17.6 °F 5.0 °F 12.2 °F 79% 30.22 in 3.0 mi North 11.5 mph - N/A Snow Light Snow
9:35 AM 17.6 °F 7.3 °F 10.4 °F 73% 30.21 in 10.0 mi North 8.1 mph - N/A Snow Light Snow
9:55 AM 19.4 °F 6.0 °F 12.2 °F 74% 30.21 in 10.0 mi North 13.8 mph 19.6 mph N/A Snow Light Snow
10:15 AM 19.4 °F 7.9 °F 10.4 °F 68% 30.21 in 10.0 mi North 10.4 mph - N/A   Scattered Clouds
10:35 AM 21.2 °F 12.6 °F 10.4 °F 63% 30.20 in 10.0 mi North 6.9 mph - N/A   Scattered Clouds
10:55 AM 21.2 °F 9.5 °F 10.4 °F 63% 30.20 in 10.0 mi North 11.5 mph - N/A   Scattered Clouds
11:15 AM 23.0 °F 13.9 °F 10.4 °F 59% 30.20 in 10.0 mi NNE 8.1 mph - N/A   Clear
11:35 AM 23.0 °F 13.1 °F 10.4 °F 59% 30.19 in 10.0 mi North 9.2 mph 17.3 mph N/A   Clear
11:55 AM 23.0 °F 13.1 °F 8.6 °F 54% 30.19 in 10.0 mi NNE 9.2 mph - N/A   Clear
12:15 PM 23.0 °F 15.8 °F 10.4 °F 59% 30.18 in 10.0 mi NNW 5.8 mph - N/A   Clear
12:35 PM 23.0 °F 18.4 °F 10.4 °F 59% 30.16 in 10.0 mi NE 3.5 mph - N/A   Clear
12:55 PM 24.8 °F 17.9 °F 10.4 °F 54% 30.16 in 10.0 mi NE 5.8 mph - N/A   Clear
1:15 PM 24.8 °F 15.3 °F 10.4 °F 54% 30.15 in 10.0 mi North 9.2 mph - N/A   Clear
1:35 PM 24.8 °F 19.1 °F 8.6 °F 50% 30.15 in 10.0 mi North 4.6 mph - N/A   Clear
1:55 PM 26.6 °F 18.2 °F 5.0 °F 40% 30.15 in 10.0 mi North 8.1 mph 16.1 mph N/A   Clear
2:15 PM 26.6 °F 16.2 °F 6.8 °F 43% 30.14 in 10.0 mi North 11.5 mph 16.1 mph N/A   Clear
2:35 PM 26.6 °F 20.0 °F 6.8 °F 43% 30.14 in 10.0 mi North 5.8 mph - N/A   Clear
2:55 PM 28.4 °F 19.1 °F 6.8 °F 40% 30.13 in 10.0 mi NE 10.4 mph - N/A   Clear
3:15 PM 28.4 °F 20.4 °F 5.0 °F 37% 30.13 in 10.0 mi NNE 8.1 mph - N/A   Clear
3:35 PM 28.4 °F 21.2 °F 5.0 °F 37% 30.13 in 10.0 mi NNE 6.9 mph - N/A   Clear
3:55 PM 26.6 °F 18.2 °F 5.0 °F 40% 30.13 in 10.0 mi North 8.1 mph - N/A   Clear
4:15 PM 28.4 °F 22.2 °F 5.0 °F 37% 30.13 in 10.0 mi NE 5.8 mph - N/A   Clear
4:35 PM 26.6 °F 20.0 °F 5.0 °F 40% 30.14 in 10.0 mi North 5.8 mph - N/A   Clear
4:55 PM 26.6 °F 19.1 °F 5.0 °F 40% 30.14 in 10.0 mi NE 6.9 mph - N/A   Clear
5:15 PM 26.6 °F 18.2 °F 5.0 °F 40% 30.14 in 10.0 mi NE 8.1 mph - N/A   Clear
5:55 PM 23.0 °F 17.0 °F 6.8 °F 50% 30.14 in 10.0 mi NNE 4.6 mph - N/A   Clear
6:15 PM 23.0 °F 17.0 °F 6.8 °F 50% 30.14 in 10.0 mi NE 4.6 mph - N/A   Clear
6:35 PM 23.0 °F 18.4 °F 8.6 °F 54% 30.14 in 10.0 mi NE 3.5 mph - N/A   Clear
6:55 PM 21.2 °F 16.4 °F 8.6 °F 58% 30.14 in 10.0 mi North 3.5 mph - N/A   Scattered Clouds
7:15 PM 21.2 °F 16.4 °F 5.0 °F 50% 30.14 in 10.0 mi NNE 3.5 mph - N/A   Clear
7:35 PM 19.4 °F 14.3 °F 6.8 °F 58% 30.14 in 10.0 mi NNE 3.5 mph - N/A   Clear
7:55 PM 19.4 °F 12.8 °F 8.6 °F 63% 30.14 in 10.0 mi NNE 4.6 mph - N/A   Clear
8:15 PM 19.4 °F 14.3 °F 8.6 °F 63% 30.14 in 10.0 mi North 3.5 mph - N/A   Clear
8:35 PM 19.4 °F 12.8 °F 8.6 °F 63% 30.14 in 10.0 mi NNE 4.6 mph - N/A   Clear
8:55 PM 17.6 °F 10.7 °F 8.6 °F 68% 30.14 in 10.0 mi NNE 4.6 mph - N/A   Scattered Clouds
9:15 PM 17.6 °F 12.3 °F 8.6 °F 68% 30.14 in 10.0 mi NE 3.5 mph - N/A   Scattered Clouds
9:35 PM 14.0 °F - 6.8 °F 73% 30.13 in 10.0 mi Calm Calm - N/A   Clear
9:55 PM 15.8 °F 10.2 °F 8.6 °F 73% 30.13 in 10.0 mi NNE 3.5 mph - N/A   Clear
10:15 PM 14.0 °F - 6.8 °F 73% 30.12 in 10.0 mi Calm Calm - N/A   Clear
10:35 PM 12.2 °F - 6.8 °F 79% 30.12 in 10.0 mi Calm Calm - N/A   Clear
10:55 PM 10.4 °F 4.0 °F 5.0 °F 79% 30.12 in 10.0 mi NNE 3.5 mph - N/A   Clear
11:15 PM 10.4 °F - 5.0 °F 79% 30.11 in 10.0 mi Calm Calm - N/A   Clear
11:35 PM 6.8 °F - 3.2 °F 85% 30.11 in 10.0 mi Calm Calm - N/A   Clear
11:55 PM 5.0 °F - 1.4 °F 85% 30.10 in 10.0 mi Calm Calm - N/A   Clear